Location: Unspecified
(0.0000°N, 0.0000°E)
Time: 16:22:59
(UTC+00:00)

Altair - Pass Details

Date: 28 November 2019
Orbit: 1502 x 1682 km, 47.2° (Epoch: 12 December)

Event Time Altitude Azimuth Distance (km) Brightness Sun altitude
Rises 21:31:12 0° 226° (SW) 4,858 10.7 -50.4°
Reaches altitude 10° 21:34:24 10° 229° (SW) 3,847 10.0 -51.0°
Enters shadow 21:39:08 33° 238° (WSW) 2,464 8.7 -52.0°
